Tracking 18840 objects as of 18-November-2017
HD Live streaming from Space Station
objects crossing your sky now

COSMOS 1455

Track COSMOS 1455 now!
10-day predictions
COSMOS 1455 is classified as:


NORAD ID: 14032
Int'l Code: 1983-037A
Perigee: 507.9 km
Apogee: 534.3 km
Inclination: 82.5 °
Period: 94.9 minutes
Semi major axis: 6892 km
RCS: 6.2678 m2 (large)
Launch date: April 23, 1983
Source: Commonwealth of Independent States (former USSR) (CIS)
Launch site: PLESETSK MISSILE AND SPACE COMPLEX (PKMTR)
aabbcc
Your satellite tracking list
Your tracking list is empty




NASA's NSSDC Master Catalog

Two Line Element Set (TLE):
1 14032U 83037A   17321.89907135 +.00000931 +00000-0 +44843-4 0  9997
2 14032 082.5144 295.4677 0019113 104.2957 256.0400 15.17311365884447
Source of the keplerian elements: AFSPC